Theta_e
297 299 301 299 298 299 297 299 291 295 296 300 303 302 303 302 301 303 305 309 312 320 325 324 331 336 337 339 338 336 331 327 325 322 322 319 319 318 316 317 314 311 309 307
297 299 300 297 300 299 298 300 296 298 299 304 307 308 303 301 300 301 303 306 309 316 323 312 321 333 333 331 331 326 323 321 320 318 318 314 310 310 311 310 309 307 305 304
292 299 298 295 299 298 298 300 299 292 300 304 306 305 303 300 300 301 302 305 307 313 317 324 330 324 319 320 322 319 317 315 314 313 312 311 309 308 309 307 306 305 303 304
293 297 289 299 305 302 300 301 303 300 304 304 307 307 306 304 301 302 303 305 307 310 313 315 321 325 318 314 315 313 311 310 310 308 308 308 308 306 305 305 303 301 301 301
293 293 295 299 302 301 300 299 303 302 304 306 308 308 307 307 304 303 305 306 307 310 314 313 313 316 317 312 312 312 309 308 306 306 306 307 306 305 305 302 301 300 302 302
295 287 288 299 305 306 303 294 304 305 303 303 306 299 302 307 305 305 306 310 307 309 310 311 312 311 309 308 309 308 306 306 306 306 304 305 306 304 304 304 302 304 301 300
294 293 297 305 307 306 293 295 307 307 305 304 302 307 308 309 306 307 308 307 308 308 307 308 309 308 305 302 302 304 304 304 303 303 302 303 303 304 303 302 302 298 299 300
297 293 291 308 305 298 304 308 309 307 306 305 307 310 310 308 305 306 304 308 309 306 306 305 306 304 302 299 300 300 300 299 299 301 302 301 301 302 301 299 299 298 299 298
296 299 309 309 308 310 309 306 306 308 308 309 307 308 310 307 304 305 305 304 308 308 305 303 302 300 298 299 299 299 298 298 298 299 300 301 300 300 300 299 299 299 299 296
300 304 306 308 310 310 311 310 309 310 309 311 308 308 310 306 303 302 302 302 304 305 303 299 299 298 298 298 298 296 296 297 298 299 299 300 301 301 301 301 300 299 297 295
299 303 306 308 308 309 310 311 309 310 310 310 311 308 310 305 304 302 301 301 302 302 301 298 297 296 295 296 297 295 295 296 297 298 299 297 296 300 301 301 299 299 298 298
297 305 305 307 309 310 309 310 310 310 310 312 312 309 309 306 305 302 300 301 300 299 300 299 297 296 295 296 296 295 294 296 296 296 297 295 292 290 289 289 289 289 289 291
305 308 308 310 310 311 310 310 312 311 312 312 313 312 309 306 304 302 300 299 299 298 299 299 297 296 296 297 296 295 293 294 295 296 296 295 294 293 290 288 288 287 287 287
307 307 306 308 307 311 311 311 312 312 313 313 313 313 310 307 305 302 298 299 299 298 298 297 296 296 296 296 296 295 294 294 296 296 295 294 295 293 292 290 288 287 288 288
306 308 308 309 309 310 311 311 310 310 311 312 313 312 310 307 306 303 299 299 298 297 297 297 296 295 296 296 294 294 295 296 297 297 296 295 296 296 295 293 291 289 289 289
306 307 308 307 308 309 310 310 309 310 311 312 311 311 309 309 307 305 300 299 297 296 296 296 295 294 295 294 294 294 295 293 295 297 298 297 297 296 294 294 293 293 293 294
306 305 307 306 307 308 309 310 311 310 312 313 311 311 309 308 307 305 302 299 299 297 296 296 295 296 295 294 294 295 295 296 292 299 298 299 298 297 297 296 296 296 296 293
307 309 310 311 309 309 309 312 313 311 312 312 313 312 308 307 306 305 302 298 295 294 295 294 296 296 295 295 294 294 296 298 299 299 300 298 298 298 298 297 296 295 294 294
307 308 311 311 312 310 310 312 312 314 313 313 311 310 308 307 307 305 304 299 295 292 292 295 294 295 294 293 294 294 296 297 298 299 300 294 299 299 298 296 295 295 296 296
306 307 309 310 311 311 311 313 313 313 313 313 312 309 306 305 306 304 303 300 297 294 293 293 294 294 294 294 293 295 297 298 298 298 299 299 299 298 297 293 297 297 297 296
305 307 309 309 310 311 313 313 312 311 312 313 311 309 309 307 304 303 300 295 296 294 293 293 294 294 295 294 296 297 298 299 298 299 299 299 298 298 298 298 298 297 297 296
305 307 308 307 309 307 309 311 310 310 310 311 311 309 307 304 303 301 300 296 294 289 293 293 293 291 293 290 297 298 299 299 299 300 300 299 299 298 298 298 298 297 297 297
299 303 303 304 305 306 308 309 309 307 307 308 309 307 305 303 302 296 291 293 294 291 293 292 289 288 287 297 298 298 298 298 299 300 300 300 299 299 299 298 298 297 297 296
295 296 298 300 300 302 304 302 303 303 306 306 307 308 304 300 300 300 296 290 288 290 291 290 289 287 292 298 299 299 299 299 298 299 299 293 298 299 298 298 297 297 296 295
294 296 296 297 298 298 300 300 300 302 303 305 306 305 304 303 299 296 296 296 289 292 292 287 287 287 299 300 299 299 298 298 299 298 299 298 297 296 297 298 297 297 296 295
295 296 295 296 297 298 299 300 299 301 301 299 300 301 300 300 298 297 297 296 299 293 298 298 300 297 303 301 301 300 299 299 298 297 297 299 298 298 297 296 296 296 296 295
295 291 296 296 297 296 296 296 297 297 298 297 296 297 296 297 298 300 296 298 300 302 301 301 303 300 304 305 302 300 300 298 296 299 299 299 299 299 298 299 297 297 295 294
Wind_Speed
15 22 19 17 15 14 10 13 4 12 20 23 18 19 11 16 20 21 22 23 21 22 13 14 5 11 10 10 12 15 13 14 15 15 14 16 16 18 16 16 15 15 18 15
16 22 14 18 10 6 13 9 4 15 18 17 16 19 13 16 20 20 22 22 19 17 11 18 18 5 9 7 9 14 16 18 16 18 15 16 17 20 17 17 18 19 18 15
14 19 18 10 6 8 12 9 1 9 18 19 21 19 10 15 18 18 19 20 18 15 12 1 11 10 13 10 11 14 16 17 17 17 17 16 19 20 19 18 18 18 16 18
12 15 8 8 8 6 12 7 6 12 16 21 16 15 5 10 14 17 18 18 18 14 11 10 11 12 15 11 5 15 15 15 16 18 17 15 18 19 18 16 17 16 15 14
9 10 15 7 5 13 16 8 12 12 15 20 19 16 9 15 12 13 15 14 14 14 10 10 11 11 13 10 4 15 17 16 16 19 17 16 17 19 18 18 17 16 15 16
12 5 4 5 10 15 19 3 12 16 14 18 21 13 12 17 14 15 15 11 11 12 14 9 9 10 16 8 2 11 12 15 15 17 20 16 16 18 16 16 18 15 15 11
11 14 10 13 10 17 15 11 18 15 12 14 12 8 11 14 10 11 11 13 12 11 9 9 11 14 12 11 10 10 14 13 15 16 18 16 17 16 17 17 17 15 14 12
8 11 6 17 19 17 13 14 15 10 10 11 12 11 12 14 16 15 12 12 11 8 8 9 9 10 11 14 11 12 14 16 17 16 14 14 18 16 17 16 14 14 13 13
7 13 22 16 14 18 17 17 15 6 8 14 10 9 10 10 12 15 13 11 10 7 7 8 9 9 12 11 12 14 15 16 16 17 15 16 17 16 13 13 10 11 11 12
15 13 15 20 14 8 11 10 8 5 4 13 11 6 10 8 8 10 12 11 10 8 7 9 10 12 12 12 13 14 16 16 15 17 18 15 11 10 10 9 10 11 11 11
21 21 21 13 8 12 12 13 7 9 10 13 11 7 8 6 7 8 8 9 9 7 8 9 11 13 13 14 15 16 15 15 16 15 15 12 10 4 9 10 8 11 11 10
13 17 16 12 12 14 14 14 9 7 11 11 11 9 7 5 5 6 7 7 7 9 9 9 11 13 15 17 17 16 15 12 11 11 10 11 13 15 24 24 26 25 21 14
14 14 17 18 15 17 17 16 8 8 9 10 10 9 7 5 4 5 6 7 7 8 9 10 11 12 12 13 19 20 16 13 10 11 11 11 12 13 15 18 26 24 22 20
18 18 17 17 15 14 12 14 7 9 3 5 7 8 5 5 4 7 7 7 8 9 10 13 14 12 13 12 17 19 18 18 9 10 11 11 12 12 11 12 12 12 11 10
15 14 15 15 16 14 12 13 12 10 3 5 4 6 3 4 5 8 6 7 8 9 10 13 15 13 13 13 17 17 12 10 11 12 11 11 10 11 11 12 11 12 11 9
19 19 18 16 17 11 11 11 14 12 3 2 5 8 3 6 7 9 8 6 7 7 10 12 12 14 13 14 15 10 10 11 12 12 10 10 9 11 11 11 12 11 10 9
20 17 17 17 15 17 14 13 11 13 2 1 1 9 5 6 6 8 8 9 8 9 9 10 13 14 14 12 11 9 10 10 9 9 11 10 10 10 10 10 11 10 10 9
17 17 20 21 17 15 14 12 10 12 6 4 6 8 8 5 6 7 10 11 10 10 9 9 10 14 14 12 11 9 8 11 10 10 9 12 12 11 11 12 11 11 11 8
17 22 24 18 14 11 9 11 9 5 6 6 6 6 10 7 7 8 10 11 10 9 8 9 12 12 13 13 13 8 6 9 10 9 10 9 10 12 12 12 12 12 11 9
20 22 20 15 7 9 10 3 6 6 6 9 8 6 11 8 10 9 8 8 9 7 11 12 11 10 11 7 10 6 4 9 10 10 10 11 12 12 12 12 12 11 10 10
19 21 13 9 3 5 6 6 6 6 6 8 9 7 11 11 10 10 9 6 8 14 13 14 10 9 8 5 5 5 5 8 10 12 12 12 13 13 12 12 12 11 11 10
17 16 8 8 7 4 4 5 5 5 5 7 10 8 12 11 11 9 7 9 8 11 9 9 9 9 9 8 5 4 2 9 9 10 11 11 12 12 12 12 12 11 10 10
9 3 6 3 3 0 5 2 3 2 4 7 9 11 11 8 8 9 8 9 9 10 9 9 11 11 8 9 9 9 10 10 7 9 10 9 11 11 11 11 11 11 10 10
6 9 9 7 7 6 1 3 3 2 3 1 7 10 11 9 7 5 11 10 12 11 10 12 12 9 10 9 9 10 9 10 9 7 8 10 9 11 11 11 11 11 10 10
6 5 5 6 2 3 3 2 2 2 3 3 8 9 9 7 7 9 11 11 11 14 12 11 11 10 9 11 12 12 10 9 9 10 8 8 10 10 9 9 10 10 10 9
3 0 1 2 3 3 2 2 1 1 4 4 5 6 6 7 10 11 12 14 13 15 14 14 12 10 11 14 14 13 12 11 13 10 11 9 10 9 9 9 10 10 10 9
1 3 2 2 3 3 3 3 1 3 3 4 5 5 7 8 10 11 14 11 8 13 13 12 9 7 10 10 13 13 12 12 10 11 10 9 8 8 9 8 10 9 10 10
Wind_Direction
305 290 290 281 277 300 334 320 350 305 313 358 351 332 343 341 335 340 344 349 343 333 8 24 104 128 147 178 175 133 120 125 115 108 116 127 122 110 110 115 110 106 104 95
302 288 274 281 288 3 306 347 309 331 332 349 355 341 354 350 340 347 342 343 340 348 6 27 311 152 167 171 147 117 117 114 113 119 132 113 107 109 109 111 106 101 99 105
306 311 307 294 42 327 339 334 282 325 327 335 352 345 349 356 339 345 342 340 339 357 1 125 49 66 74 58 115 110 114 115 118 122 119 127 118 117 118 112 110 108 106 108
290 305 324 37 88 323 318 65 21 319 350 332 6 335 51 13 343 345 341 341 341 351 26 27 45 66 86 77 80 112 105 107 111 110 111 119 121 112 113 117 110 112 113 122
288 337 302 271 35 350 338 358 346 347 0 336 349 342 20 10 359 341 336 346 338 347 19 40 51 73 85 82 200 123 117 120 121 114 122 118 116 119 119 114 112 104 108 108
301 300 281 37 19 348 316 320 301 16 5 338 347 346 324 345 5 347 344 11 353 358 360 27 52 87 67 76 62 94 108 105 118 112 110 116 121 118 118 114 112 110 108 110
264 278 287 34 358 338 324 348 338 6 356 339 353 350 323 328 352 10 352 355 10 4 33 27 36 71 87 77 58 74 91 98 100 104 108 115 110 107 107 106 106 113 113 111
313 301 298 359 332 331 327 312 329 6 339 337 348 347 350 339 340 1 356 358 19 21 38 50 55 67 79 97 100 96 98 102 102 105 107 105 104 103 101 106 109 112 117 110
294 305 322 313 326 326 306 298 302 15 337 327 346 1 359 349 345 339 0 353 8 35 76 76 84 89 86 84 92 97 96 97 99 100 102 102 102 103 105 109 128 128 118 110
278 270 297 318 309 318 337 327 26 313 353 309 356 21 6 3 347 338 355 3 6 9 86 95 96 95 95 98 100 97 102 107 108 103 101 101 99 107 120 133 129 122 120 117
280 278 276 291 343 344 334 323 352 331 325 349 354 50 6 11 352 355 351 2 16 38 94 104 105 103 102 105 107 100 99 102 100 99 101 88 58 89 94 61 108 128 125 127
281 304 306 298 323 327 319 312 323 349 329 355 346 53 28 32 9 6 5 12 34 47 86 99 110 109 106 104 99 105 100 93 93 98 95 93 89 80 61 67 66 65 67 83
275 289 294 300 308 302 297 292 347 331 336 343 354 31 56 78 33 34 34 43 59 60 74 98 103 101 111 118 118 109 88 80 91 93 99 103 106 101 97 72 70 68 73 72
299 297 275 271 281 290 295 289 283 285 308 329 342 61 50 81 84 62 51 67 75 74 82 96 95 95 97 106 110 106 105 111 106 108 108 113 111 112 115 110 105 97 66 85
303 293 286 284 282 275 267 277 268 280 130 325 354 65 53 95 76 85 87 89 94 94 90 98 104 102 106 115 105 108 111 119 123 112 117 122 127 116 110 107 107 109 112 112
297 296 295 287 289 278 267 260 259 261 244 186 302 102 90 101 104 103 109 116 117 114 115 109 106 112 113 109 110 117 117 105 105 121 129 122 117 111 112 123 121 117 120 121
318 310 300 288 278 276 269 270 247 250 145 151 151 114 133 135 125 113 109 98 96 109 115 116 117 122 120 121 117 121 116 121 129 143 133 125 126 125 128 124 123 113 89 61
316 307 294 287 269 272 273 275 257 230 166 190 140 142 148 168 141 131 120 114 104 92 103 115 124 127 129 134 132 121 129 140 138 134 123 137 134 131 128 114 106 111 110 96
322 309 300 291 261 250 274 262 222 132 122 143 175 163 139 150 146 135 135 128 122 117 116 124 125 128 132 138 131 142 151 146 133 141 129 118 132 124 117 120 122 128 134 119
313 310 301 301 247 232 247 188 140 147 173 146 166 169 128 139 134 140 138 133 139 123 125 130 130 130 130 135 134 155 149 138 145 122 152 139 126 126 122 129 132 120 112 108
308 302 283 296 166 232 251 193 161 182 166 149 170 182 141 146 144 140 132 116 122 131 129 131 132 137 141 128 114 144 167 139 142 151 147 130 128 129 139 134 123 120 115 113
301 290 268 297 186 167 258 171 180 150 196 158 172 156 135 143 143 139 133 129 125 129 128 131 132 130 132 128 130 126 83 150 154 148 130 138 136 139 132 128 123 119 116 114
326 305 53 337 67 114 181 239 144 142 195 175 163 144 154 144 138 131 124 132 131 130 128 129 132 130 131 123 136 152 183 154 139 132 136 135 135 130 130 128 123 116 115 113
21 38 22 13 4 337 19 24 23 165 156 158 154 138 141 133 121 111 117 132 127 131 122 134 141 135 125 144 163 155 146 136 137 128 122 126 133 128 117 129 122 115 111 99
5 23 1 327 47 28 14 11 222 178 141 145 135 140 138 136 124 132 134 136 130 125 131 137 155 164 172 154 149 145 143 149 140 125 118 107 119 125 112 108 118 123 116 124
291 64 89 22 48 32 358 356 25 108 115 103 91 110 110 116 127 131 138 145 137 143 146 158 172 191 162 153 147 147 150 133 142 141 127 125 121 115 115 118 127 123 118 114
223 324 46 66 55 30 20 22 116 111 119 121 105 107 118 127 137 139 141 153 158 145 156 166 179 225 146 138 139 143 141 149 136 128 121 119 124 120 133 126 119 122 118 121